Location: Callanans Corners
(42.5326°N, 73.8846°W)
Time: 14:27:23
(UTC+00:00)

IRIDIUM 103 - Pass Details

Date: 06 October 2022
Orbit: 776 x 779 km, 86.4° (Epoch: 28 November)

Event Time Altitude Azimuth Distance (km) Brightness Sun altitude
Rises 23:19:18 0° 176° (S) 3,246 7.5 -10.2°
Reaches altitude 10° 23:21:38 10° 175° (S) 2,323 6.7 -10.7°
Maximum altitude 23:26:49 76° 91° (E) 806 4.3 -11.6°
Drops below altitude 10° 23:32:03 10° 6° (N) 2,341 6.8 -12.6°
Sets 23:34:25 0° 5° (N) 3,273 7.6 -13.0°
